Other Public Products
Issued by NWS Grand Forks, ND

Home | Current Version | Previous Version | Graphics & Text | Print | Product List | Glossary On
Versions: 1 2 3 4 5 6 7 8 9 10 11 12 13 14 15 16 17 18 19 20 21 22 23 24 25 26 27 28 29 30 31 32 33 34 35 36 37 38 39 40 41 42 43 44 45 46 47 48 49 50
000
FPUS83 KFGF 100410
OPUFGF
PRAIRIE TO PINES WEATHER ROUNDUP
NATIONAL WEATHER SERVICE EASTERN NORTH DAKOTA/GRAND FORKS ND
1100 PM CDT WED JUL 09 2014

 **SATELLITE DATA USED TO AUGMENT SKY COVER AT AUTOMATED STATIONS**
 *****  WEATHER ACROSS EASTERN NORTH DAKOTA  *****

CITY           SKY/WX    TMP DP  RH WIND       PRES   REMARKS
GRAND FORKS    CLEAR     65  52  62 SE5       29.97S
GRAND FORKS AF CLEAR     62  53  72 SE6       29.98S
GRAND CITY NWS   N/A     63 N/A N/A SE5         N/A
BUXTON         NOT AVBL
DEVILS LAKE    CLEAR     66  54  63 SE9       29.95S
FARGO          CLEAR     63  51  65 E6        29.98S
WAHPETON ARPT  CLEAR     63  52  67 E5        30.00R
$$

 *****  WEATHER ACROSS CENTRAL AND WESTERN NORTH DAKOTA  *****

CITY           SKY/WX    TMP DP  RH WIND       PRES   REMARKS
JAMESTOWN      CLEAR     64  54  69 SE6       29.97S
BISMARCK       CLEAR     64  59  83 E6        29.95S
MINOT          CLEAR     66  59  78 SE6       29.90F
MINOT AFB      CLEAR     62  62  99 SE7       29.90S
GARRISON         N/A     67  62  84 SE6       29.92S
WILLISTON      CLEAR     74  58  57 SE10      29.86R
DICKINSON      CLEAR     64  57  78 SE10      29.92R
HETTINGER      CLEAR     66  56  70 SE8       29.96R
$$

 *****  OTHER OBSERVATIONS NORTHEAST NORTH DAKOTA  *****

CITY           SKY/WX    TMP DP  RH WIND       PRES   REMARKS
WALHALLA         N/A     59  57  94 CALM        N/A
LANGDON        FAIR      54  50  87 SE9       29.97S
CAVALIER       FAIR      64  54  68 SE5       29.96F
GRAFTON        FAIR      61  52  72 SE7       29.97S
CANDO          FAIR      59  55  88 SE7       29.96S
FORT TOTTEN      N/A     63  52  67 SE5       29.95S
ROLLA          CLOUDY    61  55  82 S8        29.96F
RUGBY          FAIR      64  57  77 SE9       29.93F
 ***** THE ABOVE OBSERVATIONS ARE NON NWS ARE NOT QUALITY
        CONTROLLED AND MAY MIS-REPORT RAIN FOR SNOW...
$$

 *****  OTHER OBSERVATIONS SOUTHEAST NORTH DAKOTA *****

CITY           SKY/WX    TMP DP  RH WIND       PRES   REMARKS
COOPERSTOWN    NOT AVBL
VALLEY CITY    FAIR      63  55  77 SE6       29.99S
OAKES          NOT AVBL
GWINNER        CLEAR     64  59  82 SE5       30.00S
BUFFALO        NOT AVBL
WYNDMERE       NOT AVBL
 ***** THE ABOVE OBSERVATIONS ARE NON NWS ARE NOT QUALITY
       CONTROLLED AND MAY MIS-REPORT RAIN FOR SNOW...
$$

  *****  WEATHER ACROSS NORTHERN MINNESOTA  *****

CITY           SKY/WX    TMP DP  RH WIND       PRES   REMARKS
FLAG ISLAND    CLEAR     66  55  68 S8        29.96S
WARROAD        CLEAR     59  54  82 SW3       29.99S
ROSEAU         CLEAR     57  52  82 CALM      29.99S
HALLOCK        CLEAR     59  54  82 SE5       29.97F
THF RVR FALLS  CLEAR     61  52  72 CALM      30.00S
HALSTAD          N/A     60  50  70 SE6         N/A
FOSSTON        CLEAR     54  52  94 CALM      30.01S
BAUDETTE       CLEAR     58  52  80 CALM      30.00S
WASKISH        NOT AVBL
CROOKSTON      CLEAR     64  52  63 SE3       29.99F
$$
  *****  WEATHER ACROSS CENTRAL AND WEST MINNESOTA  *****

CITY           SKY/WX    TMP DP  RH WIND       PRES   REMARKS
BEMIDJI        CLEAR     53  51  91 CALM      30.01S
PARK RAPIDS    CLEAR     62  54  74 CALM      30.01S
WADENA         CLEAR     55  52  88 CALM      30.02R
DETROIT LAKES  CLEAR     63  55  77 CALM      30.02S
MOORHEAD       CLEAR     66  55  68 E3        30.00S
FERGUS FALLS   CLEAR     64  52  63 E3        30.00S
ELBOW LAKE     NOT AVBL
MORRIS MN      CLEAR     61  55  82 CALM      30.00S
STAPLES        CLEAR     59  54  82 CALM      30.02S
WHEATON        CLEAR     63  54  72 E5        30.02R
$$
  *****  WEATHER ELSEWHERE ACROSS MINNESOTA  *****

CITY           SKY/WX    TMP DP  RH WIND       PRES   REMARKS
DULUTH         PTCLDY    57  50  77 CALM      30.03R
INTRNTL FALLS  MOCLDY    52  51  97 CALM      30.00S
ELY            CLEAR     52  46  82 CALM      30.03S
CLOQUET        CLEAR     57  50  77 CALM      30.03S
BRAINERD       PTCLDY    64  55  72 CALM      30.02R
HIBBING        CLOUDY    55  52  89 CALM      30.02R
ALEXANDRIA     CLEAR     64  52  64 CALM      30.03R
SAINT CLOUD    CLEAR     62  57  83 CALM      30.00S
MINNEAPOLIS    CLEAR     69  55  60 SE6       30.01R
$$

  *****  WEATHER ACROSS SOUTH DAKOTA  *****

CITY           SKY/WX    TMP DP  RH WIND       PRES   REMARKS
SIOUX FALLS    PTCLDY    69  59  70 SE7       30.00R
BROOKINGS      NOT AVBL
WATERTOWN      CLEAR     65  55  70 E5        30.01S
HURON          CLEAR     68  58  70 E7        29.97R
SISSETON         N/A     63  58  83 SW6       29.99R
ABERDEEN       CLEAR     64  56  75 E6        29.99R
MITCHELL       CLEAR     67  60  78 SE3       29.98R
PIERRE         CLEAR     64  58  80 SE8       29.95R HAZE
MOBRIDGE       CLEAR     67  59  75 SE9       29.95R
RAPID CITY     CLEAR     63  55  75 E9        29.98R
$$

  *****  SOME WEATHER IN NEARBY STATES *****

CITY           SKY/WX    TMP DP  RH WIND       PRES   REMARKS
GLASGOW MT     CLEAR     73  53  49 E12       29.76F
GREAT FALLS MT CLOUDY    77  43  29 SW10      29.82R
CHEYENNE WY    CLEAR     72  42  34 S7        30.10R
SCOTTSBLUFF NE CLEAR     73  62  68 E17       29.93R
OMAHA NE       CLOUDY    73  61  65 S8        30.02S
DES MOINES IA  CLEAR     71  60  68 S7        30.04R
DAVENPORT IA   CLEAR     64  57  78 SE3       30.06R
CHICAGO IL     CLEAR     66  55  67 E5        30.05R
EAU CLAIRE WI  PTCLDY    62  57  83 E3        30.03R
LA CROSSE WI   CLEAR     65  57  75 E7        30.03R
$$

  *****  SOME NATIONAL WEATHER *****

CITY           SKY/WX    TMP DP  RH WIND       PRES   REMARKS
LA GUARDIA NY  CLOUDY    76  64  66 NW3       29.95R
RALEIGH NC     CLOUDY    75  69  81 S3        30.04R
ATLANTA GA     CLOUDY    76  69  79 S7        30.08R
NEW ORLEANS LA MOCLDY    74  70  87 CALM      30.07R
OKLAHOMA CITY  MOCLDY    78  68  71 SE7       30.01R
ALBUQUERQUE NM CLOUDY    77  52  41 VRB3      30.17R
SALT LAKE CITY LGT RAIN  80  53  39 S20G33    29.95F
LOS ANGELES CA MOCLDY    68  61  78 W13       29.92R
BOISE ID       PTCLDY    82  50  32 W6        29.88F
SEATTLE WA     CLEAR     73  56  54 NW5       29.94F
$$

*** WEATHER ACROSS MANITOBA...SASKATCHEWAN AND ONTARIO ***
                ***ONTARIO***

CITY           SKY/WX    TMP DP  RH WIND       PRES   REMARKS
GERALDTON      CLEAR     52  45  76 CALM      29.98R
THUNDER BAY    PTCLDY    52  50  93 CALM      30.00R
SIOUX LOOKOUT  PTCLDY    48  48 100 S3        29.98S
TORONTO        CLEAR     61  50  67 N8        30.04R
BIG TROUT LK   CLOUDY    57  50  77 W3        29.86S
PICKLE LAKE    NOT AVBL
DRYDEN         CLEAR     59  45  58 S6        29.98S
KENORA         PTCLDY    63  52  67 SW6       29.99S
$$
                *** MANITOBA***

CITY           SKY/WX    TMP DP  RH WIND       PRES   REMARKS
BRANDON        CLOUDY    64  57  77 SE6       29.91S
DAUPHIN        CLEAR     63  57  82 S6        29.86F
ISLAND LAKE    CLOUDY    66  54  63 S6        29.82F
PILOT MOUND      N/A     55  52  88 S7          N/A
THE PAS        PTCLDY    70  61  73 S8        29.72S
THOMPSON       PTCLDY    59  59 100 S2        29.75R
WINNIPEG       CLEAR     63  50  63 S7        29.96S
LYNN LAKE      CLEAR     66  57  72 E12G18    29.71F
GILLAM         PTCLDY    57  55  94 SE6       29.76S
$$
                ***SASKATCHEWAN***

CITY           SKY/WX    TMP DP  RH WIND       PRES   REMARKS
ESTEVAN        PTCLDY    68  61  77 SE9       29.87F
KINDERSLEY     PTCLDY    66  57  72 S9        29.63F
LLOYDMINSTER   LGT RAIN  66  57  72 NW17G31   29.71R
PRINCE ALBERT  MOCLDY    70  63  78 S8        29.69F
REGINA         CLEAR     68  61  77 SE16      29.80S
YORKTON        CLEAR     66  59  77 S6        29.84S
N. BATTLEFORD  NOT AVBL


USA.gov is the U.S. government's official web portal to all federal, state and local government web resources and services.